7 * 24
多渠道服务支持
ORBCOMM FM 103是ORBCOMM星座下的低轨物联网通信卫星,于2014年7月14日发射,归属ORB,运行于近地轨道,属于机器对机器(M2M)通信卫星星座的组成部分。该卫星依托低轨轨道特点,为全球范围内提供低成本窄带数据传输服务,支撑物联网和远程设备监控等应用,服务应急通信、资产跟踪等场景,助力全球物联网互联互通。
(ORB)
| 数据来源 | 国际轨道数据 |
| 星历时间: | 2026-09-10T13:30:24+0800 1天前 查看轨道信息 |
| 半长轴: | 7074.82km |
| 偏心率: | 0.0001854 |
| 轨道倾角: | 47.006° |
| 近地点辐角 | 197.255° |
| 升交点赤经 | 51.005° |
| 平近点角 | 162.828° |
| 近地点: | 695.371km |
| 远地点: | 697.995km |
| 周期: | 98.704分钟 |
| 每日圈数: | 14.589141 |